"Time","Value","Approval","myLocation"
"2023-05-06 00:00",6.19696249366447,"Working","OW437"
"2023-05-06 01:00",6.1989619868221,"Working","OW437"
"2023-05-06 02:00",6.19996147997973,"Working","OW437"
"2023-05-06 03:00",6.20196097313735,"Working","OW437"
"2023-05-06 04:00",6.20396046629498,"Working","OW437"
"2023-05-06 05:00",6.20595995945261,"Working","OW437"
"2023-05-06 06:00",6.20695945261024,"Working","OW437"
"2023-05-06 07:00",6.20895894576787,"Working","OW437"
"2023-05-06 08:00",6.20995843892549,"Working","OW437"
"2023-05-06 09:00",6.21195793208312,"Working","OW437"
"2023-05-06 10:00",6.21295742524075,"Working","OW437"
"2023-05-06 11:00",6.21395691839838,"Working","OW437"
"2023-05-06 12:00",6.21495641155601,"Working","OW437"
"2023-05-06 13:00",6.21695590471363,"Working","OW437"
"2023-05-06 14:00",6.21895539787126,"Working","OW437"
"2023-05-06 15:00",6.21995489102889,"Working","OW437"
"2023-05-06 16:00",6.22195438418652,"Working","OW437"
"2023-05-06 17:00",6.22295387734415,"Working","OW437"
"2023-05-06 18:00",6.22495337050177,"Working","OW437"
"2023-05-06 19:00",6.2259528636594,"Working","OW437"
"2023-05-06 20:00",6.22795235681703,"Working","OW437"
"2023-05-06 21:00",6.22895184997466,"Working","OW437"
"2023-05-06 22:00",6.23095134313229,"Working","OW437"
"2023-05-06 23:00",6.23195083628991,"Working","OW437"
"2023-05-07 00:00",6.23395032944754,"Working","OW437"
"2023-05-07 01:00",6.23594982260517,"Working","OW437"
"2023-05-07 02:00",6.2369493157628,"Working","OW437"
"2023-05-07 03:00",6.23894880892043,"Working","OW437"
"2023-05-07 04:00",6.24094830207805,"Working","OW437"
"2023-05-07 05:00",6.24194779523568,"Working","OW437"
"2023-05-07 06:00",6.24394728839331,"Working","OW437"
"2023-05-07 07:00",6.24494678155094,"Working","OW437"
"2023-05-07 08:00",6.24694627470857,"Working","OW437"
"2023-05-07 09:00",6.24794576786619,"Working","OW437"
"2023-05-07 10:00",6.24994526102382,"Working","OW437"
"2023-05-07 11:00",6.25194475418145,"Working","OW437"
"2023-05-07 12:00",6.25294424733908,"Working","OW437"
"2023-05-07 13:00",6.25394374049671,"Working","OW437"
"2023-05-07 14:00",6.25694323365433,"Working","OW437"
"2023-05-07 15:00",6.25894272681196,"Working","OW437"
"2023-05-07 16:00",6.25994221996959,"Working","OW437"
"2023-05-07 17:00",6.26194171312722,"Working","OW437"
"2023-05-07 18:00",6.26294120628485,"Working","OW437"
"2023-05-07 19:00",6.26394069944247,"Working","OW437"
"2023-05-07 20:00",6.2659401926001,"Working","OW437"
"2023-05-07 21:00",6.26693968575773,"Working","OW437"
"2023-05-07 22:00",6.26893917891536,"Working","OW437"
"2023-05-07 23:00",6.26993867207298,"Working","OW437"
"2023-05-08 00:00",6.27093816523061,"Working","OW437"
"2023-05-08 01:00",6.27293765838824,"Working","OW437"
"2023-05-08 02:00",6.27393715154587,"Working","OW437"
"2023-05-08 03:00",6.2749366447035,"Working","OW437"
"2023-05-08 04:00",6.27693613786113,"Working","OW437"
"2023-05-08 05:00",6.27793563101875,"Working","OW437"
"2023-05-08 06:00",6.27993512417638,"Working","OW437"
"2023-05-08 07:00",6.28093461733401,"Working","OW437"
"2023-05-08 08:00",6.28193411049164,"Working","OW437"
"2023-05-08 09:00",6.28293360364927,"Working","OW437"
"2023-05-08 10:00",6.28493309680689,"Working","OW437"
"2023-05-08 11:00",6.28593258996452,"Working","OW437"
"2023-05-08 12:00",6.28693208312215,"Working","OW437"
"2023-05-08 13:00",6.28893157627978,"Working","OW437"
"2023-05-08 14:00",6.28993106943741,"Working","OW437"
"2023-05-08 15:00",6.29093056259503,"Working","OW437"
"2023-05-08 16:00",6.29293005575266,"Working","OW437"
"2023-05-08 17:00",6.29292954891029,"Working","OW437"
"2023-05-08 18:00",6.29492904206792,"Working","OW437"
"2023-05-08 19:00",6.29592853522554,"Working","OW437"
"2023-05-08 20:00",6.29592802838317,"Working","OW437"
"2023-05-08 21:00",6.2969275215408,"Working","OW437"
"2023-05-08 22:00",6.29892701469843,"Working","OW437"
"2023-05-08 23:00",6.29992650785606,"Working","OW437"
"2023-05-09 00:00",6.30192600101368,"Working","OW437"
"2023-05-09 01:00",6.30292549417131,"Working","OW437"
"2023-05-09 02:00",6.30392498732894,"Working","OW437"
"2023-05-09 03:00",6.30592448048657,"Working","OW437"
"2023-05-09 04:00",6.3069239736442,"Working","OW437"
"2023-05-09 05:00",6.30892346680182,"Working","OW437"
"2023-05-09 06:00",6.31092295995945,"Working","OW437"
"2023-05-09 07:00",6.31292245311708,"Working","OW437"
"2023-05-09 08:00",6.31392194627471,"Working","OW437"
"2023-05-09 09:00",6.31592143943234,"Working","OW437"
"2023-05-09 10:00",6.31792093258996,"Working","OW437"
"2023-05-09 11:00",6.31992042574759,"Working","OW437"
"2023-05-09 12:00",6.32091991890522,"Working","OW437"
"2023-05-09 13:00",6.32291941206285,"Working","OW437"
"2023-05-09 14:00",6.32491890522048,"Working","OW437"
"2023-05-09 15:00",6.3269183983781,"Working","OW437"
"2023-05-09 16:00",6.32791789153573,"Working","OW437"
"2023-05-09 17:00",6.32891738469336,"Working","OW437"
"2023-05-09 18:00",6.32991687785099,"Working","OW437"
"2023-05-09 19:00",6.33191637100862,"Working","OW437"
"2023-05-09 20:00",6.33291586416624,"Working","OW437"
"2023-05-09 21:00",6.33391535732387,"Working","OW437"
"2023-05-09 22:00",6.3349148504815,"Working","OW437"
"2023-05-09 23:00",6.33591434363913,"Working","OW437"
"2023-05-10 00:00",6.33691383679676,"Working","OW437"
"2023-05-10 01:00",6.33791332995438,"Working","OW437"
"2023-05-10 02:00",6.33891282311201,"Working","OW437"
"2023-05-10 03:00",6.33991231626964,"Working","OW437"
"2023-05-10 04:00",6.34191180942727,"Working","OW437"
"2023-05-10 05:00",6.3429113025849,"Working","OW437"
"2023-05-10 06:00",6.34391079574252,"Working","OW437"
"2023-05-10 07:00",6.34491028890015,"Working","OW437"
"2023-05-10 08:00",6.34590978205778,"Working","OW437"
"2023-05-10 09:00",6.34690927521541,"Working","OW437"
"2023-05-10 10:00",6.34790876837304,"Working","OW437"
"2023-05-10 11:00",6.34990826153066,"Working","OW437"
"2023-05-10 12:00",6.35090775468829,"Working","OW437"
"2023-05-10 13:00",6.35190724784592,"Working","OW437"
"2023-05-10 14:00",6.35290674100355,"Working","OW437"
"2023-05-10 15:00",6.35390623416118,"Working","OW437"
"2023-05-10 16:00",6.3549057273188,"Working","OW437"
"2023-05-10 17:00",6.35590522047643,"Working","OW437"
"2023-05-10 18:00",6.35690471363406,"Working","OW437"
"2023-05-10 19:00",6.35790420679169,"Working","OW437"
"2023-05-10 20:00",6.35890369994932,"Working","OW437"
"2023-05-10 21:00",6.35890319310694,"Working","OW437"
"2023-05-10 22:00",6.35990268626457,"Working","OW437"
"2023-05-10 23:00",6.3609021794222,"Working","OW437"
"2023-05-11 00:00",6.36090167257983,"Working","OW437"
"2023-05-11 01:00",6.36290116573746,"Working","OW437"
"2023-05-11 02:00",6.36290065889508,"Working","OW437"
"2023-05-11 03:00",6.36490015205271,"Working","OW437"
"2023-05-11 04:00",6.36589964521034,"Working","OW437"
"2023-05-11 05:00",6.36789913836797,"Working","OW437"
"2023-05-11 06:00",6.3688986315256,"Working","OW437"
"2023-05-11 07:00",6.37089812468322,"Working","OW437"
"2023-05-11 08:00",6.37189761784085,"Working","OW437"
"2023-05-11 09:00",6.37289711099848,"Working","OW437"
"2023-05-11 10:00",6.37489660415611,"Working","OW437"
"2023-05-11 11:00",6.37589609731374,"Working","OW437"
"2023-05-11 12:00",6.37689559047136,"Working","OW437"
"2023-05-11 13:00",6.37889508362899,"Working","OW437"
"2023-05-11 14:00",6.37989457678662,"Working","OW437"
"2023-05-11 15:00",6.38189406994425,"Working","OW437"
"2023-05-11 16:00",6.38289356310188,"Working","OW437"
"2023-05-11 17:00",6.3838930562595,"Working","OW437"
"2023-05-11 18:00",6.38489254941713,"Working","OW437"
"2023-05-11 19:00",6.38589204257476,"Working","OW437"
"2023-05-11 20:00",6.38689153573239,"Working","OW437"
"2023-05-11 21:00",6.38689102889002,"Working","OW437"
"2023-05-11 22:00",6.38789052204764,"Working","OW437"
"2023-05-11 23:00",6.38889001520527,"Working","OW437"
"2023-05-12 00:00",6.3898895083629,"Working","OW437"
"2023-05-12 01:00",6.38988900152053,"Working","OW437"
"2023-05-12 02:00",6.39088849467815,"Working","OW437"
"2023-05-12 03:00",6.39188798783578,"Working","OW437"
"2023-05-12 04:00",6.39388748099341,"Working","OW437"
"2023-05-12 05:00",6.39488697415104,"Working","OW437"
"2023-05-12 06:00",6.39588646730867,"Working","OW437"
"2023-05-12 07:00",6.39788596046629,"Working","OW437"
"2023-05-12 08:00",6.39888545362392,"Working","OW437"
"2023-05-12 09:00",6.39988494678155,"Working","OW437"
"2023-05-12 10:00",6.40088443993918,"Working","OW437"
"2023-05-12 11:00",6.40188393309681,"Working","OW437"
"2023-05-12 12:00",6.40388342625443,"Working","OW437"
"2023-05-12 13:00",6.40488291941206,"Working","OW437"
"2023-05-12 14:00",6.40588241256969,"Working","OW437"
"2023-05-12 15:00",6.40688190572732,"Working","OW437"
"2023-05-12 16:00",6.40888139888495,"Working","OW437"
"2023-05-12 17:00",6.40888089204257,"Working","OW437"
"2023-05-12 18:00",6.4108803852002,"Working","OW437"
"2023-05-12 19:00",6.41087987835783,"Working","OW437"
"2023-05-12 20:00",6.41187937151546,"Working","OW437"
"2023-05-12 21:00",6.41287886467309,"Working","OW437"
"2023-05-12 22:00",6.41287835783071,"Working","OW437"
"2023-05-12 23:00",6.41387785098834,"Working","OW437"
"2023-05-13 00:00",6.41487734414597,"Working","OW437"
"2023-05-13 01:00",6.4148768373036,"Working","OW437"
"2023-05-13 02:00",6.41587633046123,"Working","OW437"
"2023-05-13 03:00",6.41687582361885,"Working","OW437"
"2023-05-13 04:00",6.41787531677648,"Working","OW437"
"2023-05-13 05:00",6.41887480993411,"Working","OW437"
"2023-05-13 06:00",6.41987430309174,"Working","OW437"
"2023-05-13 07:00",6.42187379624937,"Working","OW437"
"2023-05-13 08:00",6.42287328940699,"Working","OW437"
"2023-05-13 09:00",6.42387278256462,"Working","OW437"
"2023-05-13 10:00",6.42487227572225,"Working","OW437"
"2023-05-13 11:00",6.42587176887988,"Working","OW437"
"2023-05-13 12:00",6.42787126203751,"Working","OW437"
"2023-05-13 13:00",6.42887075519513,"Working","OW437"
"2023-05-13 14:00",6.42987024835276,"Working","OW437"
"2023-05-13 15:00",6.43086974151039,"Working","OW437"
"2023-05-13 16:00",6.43186923466802,"Working","OW437"
"2023-05-13 17:00",6.43286872782565,"Working","OW437"
"2023-05-13 18:00",6.43386822098327,"Working","OW437"
"2023-05-13 19:00",6.4338677141409,"Working","OW437"
"2023-05-13 20:00",6.43486720729853,"Working","OW437"
"2023-05-13 21:00",6.43486670045616,"Working","OW437"
"2023-05-13 22:00",6.43486619361379,"Working","OW437"
"2023-05-13 23:00",6.43586568677141,"Working","OW437"
"2023-05-14 00:00",6.43586517992904,"Working","OW437"
"2023-05-14 01:00",6.43586467308667,"Working","OW437"
"2023-05-14 02:00",6.4368641662443,"Working","OW437"
"2023-05-14 03:00",6.43686365940193,"Working","OW437"
"2023-05-14 04:00",6.43786315255955,"Working","OW437"
"2023-05-14 05:00",6.43886264571718,"Working","OW437"
"2023-05-14 06:00",6.43986213887481,"Working","OW437"
"2023-05-14 07:00",6.44086163203244,"Working","OW437"
"2023-05-14 08:00",6.44186112519007,"Working","OW437"
"2023-05-14 09:00",6.44286061834769,"Working","OW437"
"2023-05-14 10:00",6.44386011150532,"Working","OW437"
"2023-05-14 11:00",6.44485960466295,"Working","OW437"
"2023-05-14 12:00",6.44585909782058,"Working","OW437"
"2023-05-14 13:00",6.44585859097821,"Working","OW437"
"2023-05-14 14:00",6.44685808413583,"Working","OW437"
"2023-05-14 15:00",6.44785757729346,"Working","OW437"
"2023-05-14 16:00",6.44885707045109,"Working","OW437"
"2023-05-14 17:00",6.44985656360872,"Working","OW437"
"2023-05-14 18:00",6.44985605676635,"Working","OW437"
"2023-05-14 19:00",6.45085554992397,"Working","OW437"
"2023-05-14 20:00",6.4508550430816,"Working","OW437"
"2023-05-14 21:00",6.45185453623923,"Working","OW437"
"2023-05-14 22:00",6.45185402939686,"Working","OW437"
"2023-05-14 23:00",6.45185352255449,"Working","OW437"
"2023-05-15 00:00",6.45285301571211,"Working","OW437"
"2023-05-15 01:00",6.45385250886974,"Working","OW437"
"2023-05-15 02:00",6.45485200202737,"Working","OW437"
"2023-05-15 03:00",6.455851495185,"Working","OW437"
"2023-05-15 04:00",6.45685098834263,"Working","OW437"
"2023-05-15 05:00",6.45785048150025,"Working","OW437"
"2023-05-15 06:00",6.45984997465788,"Working","OW437"
"2023-05-15 07:00",6.45984946781551,"Working","OW437"
"2023-05-15 08:00",6.46184896097314,"Working","OW437"
"2023-05-15 09:00",6.46284845413077,"Working","OW437"
"2023-05-15 10:00",6.46384794728839,"Working","OW437"
"2023-05-15 11:00",6.46384744044602,"Working","OW437"
"2023-05-15 12:00",6.46584693360365,"Working","OW437"
"2023-05-15 13:00",6.46684642676128,"Working","OW437"
"2023-05-15 14:00",6.46784591991891,"Working","OW437"
"2023-05-15 15:00",6.46784541307653,"Working","OW437"
"2023-05-15 16:00",6.46984490623416,"Working","OW437"
"2023-05-15 17:00",6.47084439939179,"Working","OW437"
"2023-05-15 18:00",6.47184389254942,"Working","OW437"
"2023-05-15 19:00",6.47284338570705,"Working","OW437"
"2023-05-15 20:00",6.47284287886467,"Working","OW437"
"2023-05-15 21:00",6.4738423720223,"Working","OW437"
"2023-05-15 22:00",6.47484186517993,"Working","OW437"
"2023-05-15 23:00",6.47484135833756,"Working","OW437"
"2023-05-16 00:00",6.47584085149519,"Working","OW437"
"2023-05-16 01:00",6.47684034465281,"Working","OW437"
"2023-05-16 02:00",6.47683983781044,"Working","OW437"
"2023-05-16 03:00",6.47783933096807,"Working","OW437"
"2023-05-16 04:00",6.4798388241257,"Working","OW437"
"2023-05-16 05:00",6.48083831728332,"Working","OW437"
"2023-05-16 06:00",6.48283781044095,"Working","OW437"
"2023-05-16 07:00",6.48383730359858,"Working","OW437"
"2023-05-16 08:00",6.48583679675621,"Working","OW437"
"2023-05-16 09:00",6.48683628991384,"Working","OW437"
"2023-05-16 10:00",6.48883578307146,"Working","OW437"
"2023-05-16 11:00",6.49083527622909,"Working","OW437"
"2023-05-16 12:00",6.49183476938672,"Working","OW437"
"2023-05-16 13:00",6.49283426254435,"Working","OW437"
"2023-05-16 14:00",6.49483375570198,"Working","OW437"
"2023-05-16 15:00",6.49583324885961,"Working","OW437"
"2023-05-16 16:00",6.49683274201723,"Working","OW437"
"2023-05-16 17:00",6.49783223517486,"Working","OW437"
"2023-05-16 18:00",6.49883172833249,"Working","OW437"
"2023-05-16 19:00",6.49983122149012,"Working","OW437"
"2023-05-16 20:00",6.49983071464774,"Working","OW437"
"2023-05-16 21:00",6.50083020780537,"Working","OW437"
"2023-05-16 22:00",6.500829700963,"Working","OW437"
"2023-05-16 23:00",6.50082919412063,"Working","OW437"
"2023-05-17 00:00",6.50082868727826,"Working","OW437"
"2023-05-17 01:00",6.50182818043588,"Working","OW437"
"2023-05-17 02:00",6.50282767359351,"Working","OW437"
"2023-05-17 03:00",6.50382716675114,"Working","OW437"
"2023-05-17 04:00",6.50482665990877,"Working","OW437"
"2023-05-17 05:00",6.5058261530664,"Working","OW437"
"2023-05-17 06:00",6.50682564622402,"Working","OW437"
"2023-05-17 07:00",6.50782513938165,"Working","OW437"
"2023-05-17 08:00",6.50782463253928,"Working","OW437"
"2023-05-17 09:00",6.50982412569691,"Working","OW437"
"2023-05-17 10:00",6.50982361885454,"Working","OW437"
"2023-05-17 11:00",6.51082311201216,"Working","OW437"
"2023-05-17 12:00",6.51182260516979,"Working","OW437"
"2023-05-17 13:00",6.51282209832742,"Working","OW437"
"2023-05-17 14:00",6.51382159148505,"Working","OW437"
"2023-05-17 15:00",6.51482108464268,"Working","OW437"
"2023-05-17 16:00",6.5148205778003,"Working","OW437"
"2023-05-17 17:00",6.51582007095793,"Working","OW437"
"2023-05-17 18:00",6.51581956411556,"Working","OW437"
"2023-05-17 19:00",6.51681905727319,"Working","OW437"
"2023-05-17 20:00",6.51681855043082,"Working","OW437"
"2023-05-17 21:00",6.51681804358844,"Working","OW437"
"2023-05-17 22:00",6.51781753674607,"Working","OW437"
"2023-05-17 23:00",6.5178170299037,"Working","OW437"
"2023-05-18 00:00",6.51781652306133,"Working","OW437"
"2023-05-18 01:00",6.51881601621896,"Working","OW437"
"2023-05-18 02:00",6.51881550937658,"Working","OW437"
"2023-05-18 03:00",6.51981500253421,"Working","OW437"
"2023-05-18 04:00",6.52081449569184,"Working","OW437"
"2023-05-18 05:00",6.52281398884947,"Working","OW437"
"2023-05-18 06:00",6.5228134820071,"Working","OW437"
"2023-05-18 07:00",6.52481297516472,"Working","OW437"
"2023-05-18 08:00",6.52581246832235,"Working","OW437"
"2023-05-18 09:00",6.52681196147998,"Working","OW437"
"2023-05-18 10:00",6.52781145463761,"Working","OW437"
"2023-05-18 11:00",6.52881094779524,"Working","OW437"
"2023-05-18 12:00",6.52981044095286,"Working","OW437"
"2023-05-18 13:00",6.53080993411049,"Working","OW437"
"2023-05-18 14:00",6.53180942726812,"Working","OW437"
"2023-05-18 15:00",6.53280892042575,"Working","OW437"
"2023-05-18 16:00",6.53380841358338,"Working","OW437"
"2023-05-18 17:00",6.535807906741,"Working","OW437"
"2023-05-18 18:00",6.53680739989863,"Working","OW437"
"2023-05-18 19:00",6.53780689305626,"Working","OW437"
"2023-05-18 20:00",6.53780638621389,"Working","OW437"
"2023-05-18 21:00",6.53980587937152,"Working","OW437"
"2023-05-18 22:00",6.54080537252914,"Working","OW437"
"2023-05-18 23:00",6.54080486568677,"Working","OW437"
"2023-05-19 00:00",6.5418043588444,"Working","OW437"
"2023-05-19 01:00",6.54280385200203,"Working","OW437"
"2023-05-19 02:00",6.54380334515966,"Working","OW437"
"2023-05-19 03:00",6.54480283831728,"Working","OW437"
"2023-05-19 04:00",6.54580233147491,"Working","OW437"
"2023-05-19 05:00",6.54780182463254,"Working","OW437"
"2023-05-19 06:00",6.54880131779017,"Working","OW437"
"2023-05-19 07:00",6.5498008109478,"Working","OW437"
"2023-05-19 08:00",6.55180030410542,"Working","OW437"
"2023-05-19 09:00",6.55279979726305,"Working","OW437"
"2023-05-19 10:00",6.55479929042068,"Working","OW437"
"2023-05-19 11:00",6.55579878357831,"Working","OW437"
"2023-05-19 12:00",6.55679827673594,"Working","OW437"
"2023-05-19 13:00",6.55779776989356,"Working","OW437"
"2023-05-19 14:00",6.55979726305119,"Working","OW437"
"2023-05-19 15:00",6.56079675620882,"Working","OW437"
"2023-05-19 16:00",6.56179624936645,"Working","OW437"
"2023-05-19 17:00",6.56279574252407,"Working","OW437"
"2023-05-19 18:00",6.5637952356817,"Working","OW437"
"2023-05-19 19:00",6.56379472883933,"Working","OW437"
"2023-05-19 20:00",6.56479422199696,"Working","OW437"
"2023-05-19 21:00",6.56479371515459,"Working","OW437"
"2023-05-19 22:00",6.56579320831221,"Working","OW437"
"2023-05-19 23:00",6.56579270146984,"Working","OW437"
"2023-05-20 00:00",6.56579219462747,"Working","OW437"
"2023-05-20 01:00",6.5657916877851,"Working","OW437"
"2023-05-20 02:00",6.56679118094273,"Working","OW437"
"2023-05-20 03:00",6.56679067410036,"Working","OW437"
"2023-05-20 04:00",6.56779016725798,"Working","OW437"
"2023-05-20 05:00",6.56978966041561,"Working","OW437"
"2023-05-20 06:00",6.57078915357324,"Working","OW437"
"2023-05-20 07:00",6.57178864673087,"Working","OW437"
"2023-05-20 08:00",6.57378813988849,"Working","OW437"
"2023-05-20 09:00",6.57478763304612,"Working","OW437"
"2023-05-20 10:00",6.57578712620375,"Working","OW437"
"2023-05-20 11:00",6.57678661936138,"Working","OW437"
"2023-05-20 12:00",6.57878611251901,"Working","OW437"
"2023-05-20 13:00",6.57878560567663,"Working","OW437"
"2023-05-20 14:00",6.57978509883426,"Working","OW437"
"2023-05-20 15:00",6.58178459199189,"Working","OW437"
"2023-05-20 16:00",6.58278408514952,"Working","OW437"
"2023-05-20 17:00",6.58378357830715,"Working","OW437"
"2023-05-20 18:00",6.58378307146477,"Working","OW437"
"2023-05-20 19:00",6.5847825646224,"Working","OW437"
"2023-05-20 20:00",6.58578205778003,"Working","OW437"
"2023-05-20 21:00",6.58578155093766,"Working","OW437"
"2023-05-20 22:00",6.58678104409529,"Working","OW437"
"2023-05-20 23:00",6.58678053725291,"Working","OW437"
"2023-05-21 00:00",6.58778003041054,"Working","OW437"
"2023-05-21 01:00",6.58777952356817,"Working","OW437"
"2023-05-21 02:00",6.5887790167258,"Working","OW437"
"2023-05-21 03:00",6.58977850988343,"Working","OW437"
"2023-05-21 04:00",6.59077800304105,"Working","OW437"
"2023-05-21 05:00",6.59277749619868,"Working","OW437"
"2023-05-21 06:00",6.59377698935631,"Working","OW437"
"2023-05-21 07:00",6.59477648251394,"Working","OW437"
"2023-05-21 08:00",6.59577597567157,"Working","OW437"
"2023-05-21 09:00",6.59677546882919,"Working","OW437"
"2023-05-21 10:00",6.59777496198682,"Working","OW437"
"2023-05-21 11:00",6.59977445514445,"Working","OW437"
"2023-05-21 12:00",6.60077394830208,"Working","OW437"
"2023-05-21 13:00",6.60177344145971,"Working","OW437"
"2023-05-21 14:00",6.60377293461733,"Working","OW437"
"2023-05-21 15:00",6.60477242777496,"Working","OW437"
"2023-05-21 16:00",6.60577192093259,"Working","OW437"
"2023-05-21 17:00",6.60677141409022,"Working","OW437"
"2023-05-21 18:00",6.60777090724785,"Working","OW437"
"2023-05-21 19:00",6.60877040040547,"Working","OW437"
"2023-05-21 20:00",6.6097698935631,"Working","OW437"
"2023-05-21 21:00",6.61076938672073,"Working","OW437"
"2023-05-21 22:00",6.61176887987836,"Working","OW437"
"2023-05-21 23:00",6.61176837303599,"Working","OW437"
"2023-05-22 00:00",6.61276786619361,"Working","OW437"
"2023-05-22 01:00",6.61376735935124,"Working","OW437"
"2023-05-22 02:00",6.61476685250887,"Working","OW437"
"2023-05-22 03:00",6.6157663456665,"Working","OW437"
"2023-05-22 04:00",6.61776583882413,"Working","OW437"
"2023-05-22 05:00",6.61876533198175,"Working","OW437"
"2023-05-22 06:00",6.61976482513938,"Working","OW437"
"2023-05-22 07:00",6.62076431829701,"Working","OW437"
"2023-05-22 08:00",6.62176381145464,"Working","OW437"
"2023-05-22 09:00",6.62276330461227,"Working","OW437"
"2023-05-22 10:00",6.62376279776989,"Working","OW437"
"2023-05-22 11:00",6.62576229092752,"Working","OW437"
"2023-05-22 12:00",6.62576178408515,"Working","OW437"
"2023-05-22 13:00",6.62676127724278,"Working","OW437"
"2023-05-22 14:00",6.62776077040041,"Working","OW437"
"2023-05-22 15:00",6.62876026355803,"Working","OW437"
"2023-05-22 16:00",6.62975975671566,"Working","OW437"
"2023-05-22 17:00",6.63075924987329,"Working","OW437"
"2023-05-22 18:00",6.63275874303092,"Working","OW437"
"2023-05-22 19:00",6.63375823618855,"Working","OW437"
"2023-05-22 20:00",6.63475772934617,"Working","OW437"
"2023-05-22 21:00",6.6357572225038,"Working","OW437"
"2023-05-22 22:00",6.63675671566143,"Working","OW437"
"2023-05-22 23:00",6.63875620881906,"Working","OW437"
"2023-05-23 00:00",6.63875570197669,"Working","OW437"
"2023-05-23 01:00",6.63975519513431,"Working","OW437"
"2023-05-23 02:00",6.64075468829194,"Working","OW437"
"2023-05-23 03:00",6.64175418144957,"Working","OW437"
"2023-05-23 04:00",6.6427536746072,"Working","OW437"
"2023-05-23 05:00",6.64475316776482,"Working","OW437"
"2023-05-23 06:00",6.64575266092245,"Working","OW437"
"2023-05-23 07:00",6.64675215408008,"Working","OW437"
"2023-05-23 08:00",6.64875164723771,"Working","OW437"
"2023-05-23 09:00",6.64875114039534,"Working","OW437"
"2023-05-23 10:00",6.64975063355297,"Working","OW437"
"2023-05-23 11:00",6.65175012671059,"Working","OW437"
"2023-05-23 12:00",6.65274961986822,"Working","OW437"
"2023-05-23 13:00",6.65274911302585,"Working","OW437"
"2023-05-23 14:00",6.65474860618348,"Working","OW437"
"2023-05-23 15:00",6.6557480993411,"Working","OW437"
"2023-05-23 16:00",6.65674759249873,"Working","OW437"
"2023-05-23 17:00",6.65774708565636,"Working","OW437"
"2023-05-23 18:00",6.65874657881399,"Working","OW437"
"2023-05-23 19:00",6.65974607197162,"Working","OW437"
"2023-05-23 20:00",6.66174556512924,"Working","OW437"
"2023-05-23 21:00",6.66174505828687,"Working","OW437"
"2023-05-23 22:00",6.6627445514445,"Working","OW437"
"2023-05-23 23:00",6.66374404460213,"Working","OW437"
"2023-05-24 00:00",6.66474353775976,"Working","OW437"
"2023-05-24 01:00",6.66574303091739,"Working","OW437"
"2023-05-24 02:00",6.66674252407501,"Working","OW437"
"2023-05-24 03:00",6.66774201723264,"Working","OW437"